[[{"header":{"parameterUnit":"m.s-1","parameterCategory":2,"la1":30.2991,"la2":30.254,"lo1":-89.0895,"lo2":-89.0444,"dy":0.0017,"dx":0.0017,"nx":28,"ny":28,"refTime":"2024-08-12T03:00:00:Z","depth":"0","parameterNumber":2,"parameterNumberName":"U-component_of_CURRENTS"},"data":[0,0,0,0,0,0,0,0,0,0,0,0,0,0,0,0,0,0,0,0,0,0,0,0,0,0,0,0,0,0,0,0,0,0,0,0,0,0,0,0,0,0,0,0,0,0,0,0,0,0,0,0,0,0,0,0,0,0,0.2223,0.2223,0,0.2266,0.2267,0.2268,0.2321,0.2322,0.2323,0.2323,0.2459,0.2462,0.2465,0,0,0,0,0,0,0,0,0,0,0,0,0,0.2281,0.2279,0.2223,0.2223,0.2224,0.2266,0.2267,0.2268,0.2321,0.2322,0.2323,0.2323,0.2458,0.2462,0.2465,0,0,0,0,0,0,0,0,0,0,0,0,0,0.2285,0.2278,0.2223,0.2254,0.2257,0.2266,0.2267,0.2268,0.2321,0.2322,0.2323,0.2324,0.2457,0.2461,0.2466,0.2476,0,0,0.248,0.2482,0,0,0,0,0,0,0,0,0.2285,0.2283,0.2249,0.2251,0.2255,0.2287,0.2337,0.2341,0.2321,0.2299,0.2323,0.2324,0.2408,0.2417,0.2425,0.2482,0.2488,0.248,0.2483,0.2485,0.2486,0,0,0,0,0,0,0,0.2284,0.2282,0.2243,0.2249,0.2253,0.2297,0.2298,0.2339,0.2352,0.2301,0.2305,0.2305,0.2411,0.242,0.2429,0.249,0.248,0.2484,0.2487,0.2489,0.2625,0.2626,0,0,0,0,0,0,0.2267,0.2281,0.2241,0.2244,0.2269,0.2295,0.2296,0.2278,0.2349,0.2359,0.2304,0.2307,0.2412,0.2423,0.2434,0.2494,0.2485,0.2489,0.2492,0.2624,0.2625,0.2626,0,0,0,0,0,0,0.2268,0.2262,0.224,0.2263,0.2263,0.2292,0.2272,0.2278,0.2295,0.235,0.2363,0.2315,0.2413,0.2427,0.2488,0.2498,0.2491,0.2496,0.2623,0.2625,0.2626,0.2586,0,0,0,0,0,0,0.2269,0.2262,0.2241,0.2261,0.2261,0.2236,0.2271,0.2278,0.2292,0.2297,0.2363,0.2376,0.2415,0.2481,0.2493,0.2504,0.2499,0.2622,0.2624,0.2626,0.2586,0.2586,0.2585,0,0,0,0,0,0.2271,0.2232,0.2239,0.2235,0.2231,0.2234,0.2239,0.2266,0.2292,0.2288,0.2353,0.2375,0.25,0.2485,0.2499,0.2512,0.2621,0.2624,0.2625,0.2586,0.2586,0.2586,0,0,0,0,0,0,0.2247,0.2234,0.2243,0.2203,0.2215,0.2242,0.2232,0.2264,0.2309,0.2318,0.2387,0.2404,0.2461,0.2493,0.2476,0.2558,0.2564,0.2568,0.253,0.253,0.2529,0.2503,0.2503,0,0,0,0,0,0.223,0.2195,0.2207,0.2175,0.2174,0.2207,0.2213,0.2234,0.2275,0.2295,0.2345,0.2409,0.2477,0.2508,0.2557,0.26,0.2616,0.2618,0.2618,0.2617,0.2607,0.2663,0.2666,0.2633,0.2633,0.2633,0,0,0.2213,0.2199,0.2181,0.2167,0.2175,0.2177,0.2213,0.221,0.2232,0.2304,0.2344,0.2406,0.2488,0.2541,0.2568,0.2571,0.263,0.262,0.2618,0.2608,0.2665,0.2668,0.2671,0.2634,0.2634,0.2634,0,0,0.2161,0.2146,0.2105,0.2113,0.2115,0.2142,0.2143,0.2172,0.22,0.2246,0.2318,0.2383,0.2463,0.2528,0.2576,0.2602,0.2626,0.2622,0.26,0.2655,0.2658,0.266,0.2654,0.2657,0.2622,0.2622,0.2622,0,0.2151,0.21,0.2098,0.2075,0.2086,0.2128,0.2121,0.2152,0.2205,0.224,0.2249,0.2401,0.2457,0.256,0.2569,0.2599,0.2617,0.2593,0.2652,0.2656,0.2659,0.2653,0.2656,0.262,0.262,0.2621,0.2621,0,0.2081,0.2052,0.203,0.202,0.2031,0.2028,0.2073,0.2096,0.2142,0.2192,0.2281,0.2363,0.2457,0.2488,0.2537,0.2606,0.2603,0.2643,0.2646,0.2659,0.2652,0.2656,0.2618,0.2618,0.2619,0.2619,0,0,0.2059,0.1995,0.1995,0.1992,0.2009,0.2021,0.2045,0.21,0.2141,0.2195,0.2258,0.2368,0.2417,0.2473,0.2548,0.2591,0.2618,0.262,0.2624,0.2599,0.2698,0.255,0.2541,0.2676,0.2677,0.2678,0.2671,0,0.2026,0.1966,0.1953,0.1947,0.1939,0.1983,0.2012,0.2069,0.2128,0.2193,0.229,0.2374,0.2415,0.2467,0.2518,0.2609,0.2632,0.2613,0.2702,0.2703,0.256,0.2542,0.2359,0.2325,0.2675,0.2676,0.2676,0,0.1995,0.1957,0.1918,0.1927,0.193,0.1941,0.2015,0.2043,0.2139,0.2183,0.227,0.2351,0.2443,0.2468,0.2587,0.2577,0.2623,0.2671,0.2673,0.2551,0.2563,0.2378,0.2319,0.2234,0.2682,0.2682,0.2681,0,0.201,0.1964,0.1934,0.1934,0.1933,0.1946,0.1971,0.2047,0.2084,0.218,0.2217,0.234,0.2403,0.2489,0.2573,0.2593,0.2674,0.2722,0.2623,0.2612,0.2477,0.245,0.2332,0.2785,0.2785,0.2785,0.2785,0,0.201,0.1998,0.1935,0.1924,0.1929,0.1939,0.1972,0.2014,0.2075,0.2121,0.2214,0.2271,0.2415,0.2484,0.2557,0.2571,0.2661,0.2593,0.2601,0.2452,0.2425,0.2364,0.2343,0.2785,0.2785,0.2785,0.2785,0,0.2045,0.1991,0.1962,0.1931,0.1927,0.1939,0.1955,0.1987,0.203,0.2086,0.2114,0.2228,0.2303,0.2403,0.2532,0.2525,0.2468,0.2561,0.2334,0.2313,0.2105,0.2089,0.1923,0.1895,0.2433,0.2429,0.2426,0,0.2054,0.203,0.1969,0.1956,0.194,0.1942,0.1951,0.1973,0.1996,0.2059,0.2088,0.2166,0.2216,0.229,0.2303,0.2336,0.2337,0.2164,0.2165,0.2028,0.2021,0.1985,0.1975,0.197,0.1964,0.1958,0.1954,0,0.2089,0.2056,0.2025,0.1977,0.1964,0.1948,0.195,0.1948,0.1972,0.199,0.2009,0.2041,0.2076,0.202,0.2027,0.2035,0.1984,0.2049,0.1999,0.1692,0.1559,0.1558,0.2014,0.1906,0.1911,0.1914,0.1917,0.1919,0.2127,0.2104,0.2043,0.1999,0.1987,0.1948,0.1905,0.1901,0.1883,0.1845,0.1907,0.1852,0.1775,0.1754,0.1734,0.152,0.1667,0.1466,0.1471,0.1458,0.1368,0.1664,0.1514,0.1517,0.1519,0.1521,0.1522,0,0.2148,0.2103,0.2073,0.1997,0.1963,0.1947,0.1899,0.1817,0.1746,0.1708,0.1671,0.1491,0.1368,0.1287,0.1065,0.096,0.097,0.0931,0.0867,0.091,0.1236,0.1153,0.0806,0.0806,0.0806,0.0806,0.0806,0.0807,0.2152,0.2097,0.2042,0.1961,0.1919,0.1812,0.1749,0.1639,0.1559,0.1362,0.1215,0.1177,0.1028,0.0741,0.0521,0.0504,0.0508,0.041,0.0548,0.0782,0.0834,0.0884,0.0801,0.0386,0.0385,0.0165,0.0163,0.0161]},{"header":{"parameterUnit":"m.s-1","parameterCategory":2,"la1":30.2991,"la2":30.254,"lo1":-89.0895,"lo2":-89.0444,"dy":0.0017,"dx":0.0017,"nx":28,"ny":28,"refTime":"2024-08-12T03:00:00:Z","depth":"0","parameterNumber":3,"parameterNumberName":"V-component_of_CURRENTS"},"data":[0,0,0,0,0,0,0,0,0,0,0,0,0,0,0,0,0,0,0,0,0,0,0,0,0,0,0,0,0,0,0,0,0,0,0,0,0,0,0,0,0,0,0,0,0,0,0,0,0,0,0,0,0,0,0,0,0,0,0.1209,0.1211,0,0.1335,0.1336,0.1337,0.1384,0.1384,0.1384,0.1384,0.1368,0.1367,0.1367,0,0,0,0,0,0,0,0,0,0,0,0,0,0.095,0.0954,0.1209,0.1211,0.1213,0.1335,0.1336,0.1337,0.1384,0.1384,0.1384,0.1384,0.1368,0.1367,0.1367,0,0,0,0,0,0,0,0,0,0,0,0,0,0.1064,0.0956,0.1209,0.1254,0.1259,0.1335,0.1336,0.1338,0.1384,0.1384,0.1384,0.1384,0.1368,0.1367,0.1367,0.1364,0,0,0.1365,0.1365,0,0,0,0,0,0,0,0,0.1057,0.1073,0.1245,0.1251,0.1257,0.1347,0.1239,0.1341,0.1384,0.1332,0.1384,0.1384,0.135,0.1351,0.1371,0.1363,0.1362,0.1365,0.1365,0.1364,0.1364,0,0,0,0,0,0,0,0.105,0.1067,0.1255,0.1247,0.1255,0.1248,0.1264,0.1259,0.1334,0.1337,0.1341,0.1362,0.1352,0.1372,0.1371,0.1362,0.1365,0.1364,0.1364,0.1364,0.1328,0.1328,0,0,0,0,0,0,0.1047,0.1061,0.1251,0.1259,0.116,0.1253,0.1271,0.1315,0.1337,0.1343,0.1362,0.1364,0.1373,0.1371,0.137,0.1369,0.1364,0.1364,0.1363,0.1329,0.1328,0.1327,0,0,0,0,0,0,0.1041,0.1063,0.1246,0.1164,0.1187,0.1259,0.1307,0.1318,0.1346,0.1359,0.1361,0.1381,0.1373,0.1371,0.1368,0.1368,0.1363,0.1363,0.1329,0.1329,0.1328,0.1365,0,0,0,0,0,0,0.1033,0.1061,0.1082,0.1165,0.1192,0.1295,0.1308,0.132,0.136,0.1364,0.1375,0.1374,0.1373,0.1369,0.1367,0.1367,0.1362,0.133,0.1329,0.1328,0.1364,0.1365,0.1366,0,0,0,0,0,0.1024,0.1059,0.1083,0.1105,0.1223,0.1296,0.1309,0.1355,0.1361,0.1378,0.1379,0.1374,0.136,0.1368,0.1366,0.1366,0.1331,0.1329,0.1328,0.1364,0.1365,0.1366,0,0,0,0,0,0,0.0948,0.107,0.1098,0.1166,0.1227,0.1306,0.1327,0.1358,0.1377,0.137,0.1375,0.1374,0.1371,0.1357,0.1367,0.1349,0.1341,0.1339,0.1368,0.1369,0.137,0.1367,0.1362,0,0,0,0,0,0.0945,0.1009,0.1106,0.1155,0.1189,0.1256,0.1288,0.1321,0.1356,0.1367,0.1373,0.1366,0.1364,0.1359,0.1353,0.1346,0.1329,0.1339,0.134,0.1341,0.1335,0.132,0.1319,0.1323,0.1323,0.1323,0,0,0.0924,0.1002,0.1034,0.1143,0.1193,0.1241,0.1274,0.1327,0.1349,0.1356,0.1369,0.1373,0.1363,0.1361,0.1356,0.135,0.1329,0.134,0.1341,0.1333,0.1319,0.1318,0.1318,0.1322,0.1322,0.1323,0,0,0.0918,0.0989,0.1038,0.1097,0.1183,0.1226,0.1242,0.1319,0.1335,0.1356,0.1361,0.1365,0.1362,0.1361,0.1358,0.1355,0.1339,0.1348,0.1349,0.1336,0.1336,0.1336,0.1312,0.1309,0.1345,0.1345,0.1345,0,0.0877,0.0971,0.1055,0.1114,0.1153,0.1219,0.1256,0.1288,0.1344,0.1351,0.1355,0.1365,0.1361,0.1362,0.1364,0.1359,0.1344,0.1353,0.1339,0.1338,0.1338,0.1313,0.131,0.1346,0.1346,0.1346,0.1346,0,0.0917,0.0982,0.1012,0.1112,0.1157,0.1202,0.1264,0.1287,0.1308,0.1341,0.1352,0.1358,0.1364,0.1364,0.1365,0.1359,0.1349,0.1349,0.1343,0.134,0.1314,0.131,0.1349,0.1348,0.1348,0.1347,0,0,0.0826,0.1006,0.101,0.1058,0.116,0.12,0.1228,0.1279,0.1297,0.1329,0.1348,0.1352,0.1369,0.1364,0.137,0.1359,0.1347,0.1352,0.1351,0.1339,0.1309,0.1289,0.1283,0.1351,0.135,0.135,0.1294,0,0.0817,0.0934,0.1014,0.1076,0.1133,0.1195,0.1218,0.1263,0.1297,0.1328,0.1342,0.1363,0.1365,0.1376,0.1367,0.136,0.1337,0.1361,0.1303,0.1301,0.1293,0.1278,0.1308,0.1259,0.1289,0.1289,0.1288,0,0.0812,0.0896,0.0977,0.1082,0.1106,0.1136,0.1185,0.1219,0.1275,0.1301,0.1333,0.1363,0.1369,0.1368,0.1339,0.1357,0.1328,0.1314,0.1311,0.1275,0.1274,0.1265,0.1251,0.1276,0.1282,0.1282,0.1283,0,0.0721,0.0854,0.0918,0.0959,0.1084,0.1095,0.1139,0.1201,0.1228,0.129,0.1321,0.1344,0.1355,0.1333,0.1317,0.1328,0.1275,0.1286,0.1233,0.1231,0.1234,0.1233,0.1245,0.1243,0.1243,0.1243,0.1243,0,0.069,0.0727,0.0883,0.0914,0.0952,0.1046,0.1071,0.1123,0.1191,0.1229,0.1301,0.133,0.1347,0.1337,0.1311,0.1258,0.1265,0.1223,0.1214,0.1246,0.1247,0.125,0.1266,0.1241,0.1241,0.1242,0.1242,0,0.059,0.07,0.0767,0.089,0.092,0.094,0.1035,0.1065,0.1137,0.1188,0.1211,0.1303,0.1302,0.1299,0.1264,0.1242,0.1216,0.1169,0.1202,0.1197,0.1182,0.1198,0.1162,0.1219,0.111,0.1109,0.1108,0,0.0562,0.0597,0.0725,0.0762,0.0815,0.0871,0.0912,0.1012,0.1056,0.1168,0.1189,0.1232,0.127,0.1227,0.1207,0.1154,0.1173,0.1127,0.1151,0.1175,0.1187,0.1193,0.1247,0.1168,0.1168,0.1168,0.1168,0,0.0489,0.0534,0.0602,0.0686,0.0738,0.0798,0.087,0.0899,0.1016,0.1069,0.1146,0.1192,0.1211,0.1211,0.1162,0.1134,0.118,0.1121,0.1146,0.1226,0.1235,0.1288,0.1205,0.1167,0.1167,0.1167,0.1167,0.1167,0.0421,0.0453,0.0556,0.0621,0.0682,0.0737,0.0758,0.0841,0.0903,0.0991,0.1066,0.1123,0.1186,0.1155,0.1137,0.1137,0.1156,0.1145,0.1158,0.1158,0.1229,0.1131,0.1085,0.1085,0.1084,0.1084,0.1084,0,0.0371,0.0436,0.0494,0.0585,0.062,0.0673,0.0744,0.0761,0.0812,0.0911,0.0972,0.1045,0.1092,0.1126,0.1152,0.1179,0.1223,0.1193,0.1234,0.1288,0.1199,0.122,0.1202,0.1202,0.1202,0.1202,0.1202,0.1202,0.0361,0.0416,0.0462,0.0515,0.0562,0.0588,0.0612,0.0645,0.0709,0.0786,0.0845,0.0926,0.1031,0.1106,0.1189,0.1217,0.1302,0.1278,0.1323,0.1279,0.1277,0.1275,0.1299,0.1298,0.1298,0.1446,0.1448,0.1449]}],[{"header":{"parameterUnit":"m.s-1","parameterCategory":2,"la1":30.2991,"la2":30.254,"lo1":-89.0895,"lo2":-89.0444,"dy":0.0017,"dx":0.0017,"nx":28,"ny":28,"refTime":"2024-08-12T03:00:00:Z","depth":"2","parameterNumber":2,"parameterNumberName":"U-component_of_CURRENTS"},"data":[0,0,0,0,0,0,0,0,0,0,0,0,0,0,0,0,0,0,0,0,0,0,0,0,0,0,0,0,0,0,0,0,0,0,0,0,0,0,0,0,0,0,0,0,0,0,0,0,0,0,0,0,0,0,0,0,0,0,0.1091,0.1091,0,0.1123,0.1124,0.1125,0.1206,0.1207,0.1208,0.121,0.1308,0.1309,0.131,0,0,0,0,0,0,0,0,0,0,0,0,0,0.113,0.1129,0.1091,0.1091,0.1091,0.1123,0.1124,0.1125,0.1205,0.1207,0.1209,0.121,0.1307,0.1309,0.1311,0,0,0,0,0,0,0,0,0,0,0,0,0,0.1136,0.1129,0.1091,0.1132,0.1136,0.1123,0.1124,0.1125,0.1205,0.1207,0.1209,0.1211,0.1307,0.1309,0.1311,0.1282,0,0,0.1317,0.1318,0,0,0,0,0,0,0,0,0.1136,0.1135,0.1126,0.1129,0.1133,0.1159,0.1174,0.118,0.1204,0.1183,0.121,0.1212,0.126,0.1266,0.1272,0.1287,0.1291,0.1317,0.1318,0.1319,0.132,0,0,0,0,0,0,0,0.1135,0.1134,0.1107,0.1126,0.113,0.116,0.1163,0.1176,0.1214,0.1185,0.119,0.1187,0.1264,0.127,0.1275,0.1293,0.1317,0.1319,0.132,0.1321,0.136,0.136,0,0,0,0,0,0,0.1119,0.1133,0.1106,0.1108,0.1136,0.1157,0.1161,0.1152,0.1212,0.1222,0.1185,0.119,0.1266,0.1273,0.1279,0.1323,0.1319,0.1321,0.1322,0.1361,0.136,0.136,0,0,0,0,0,0,0.112,0.1116,0.1105,0.1119,0.112,0.1154,0.1143,0.1151,0.1195,0.1211,0.1223,0.1224,0.1267,0.1276,0.131,0.1325,0.1322,0.1324,0.1361,0.1361,0.136,0.1364,0,0,0,0,0,0,0.1121,0.1116,0.1122,0.1118,0.1118,0.1107,0.1141,0.115,0.1185,0.1194,0.1247,0.1256,0.127,0.1307,0.1312,0.1328,0.1325,0.1361,0.1361,0.136,0.1364,0.1364,0.1363,0,0,0,0,0,0.1122,0.1111,0.1122,0.112,0.1119,0.1107,0.111,0.1144,0.1186,0.1195,0.1235,0.1257,0.1309,0.1308,0.1315,0.1331,0.1361,0.1361,0.136,0.1364,0.1364,0.1363,0,0,0,0,0,0,0.1149,0.1117,0.113,0.1117,0.1118,0.112,0.1138,0.1159,0.1199,0.1222,0.1255,0.1265,0.1304,0.1309,0.1307,0.1339,0.1338,0.1339,0.1339,0.1339,0.1339,0.1346,0.1327,0,0,0,0,0,0.1149,0.1124,0.1115,0.1108,0.1115,0.1136,0.1145,0.1159,0.1181,0.1204,0.1249,0.1283,0.1298,0.1314,0.1334,0.1346,0.1345,0.1359,0.1359,0.1359,0.1368,0.1385,0.1387,0.1359,0.1359,0.1359,0,0,0.1148,0.1137,0.112,0.1111,0.1127,0.1115,0.115,0.1161,0.1164,0.1205,0.1259,0.1293,0.1303,0.1323,0.134,0.1335,0.1358,0.1359,0.1359,0.1367,0.1385,0.1387,0.139,0.1359,0.1359,0.1359,0,0,0.1139,0.114,0.1124,0.1108,0.1117,0.1122,0.1131,0.1156,0.1192,0.1211,0.1255,0.1302,0.1323,0.1347,0.135,0.1358,0.1363,0.1363,0.1365,0.1381,0.1384,0.1386,0.1354,0.1354,0.1355,0.1355,0.1355,0,0.1149,0.1116,0.1122,0.1102,0.1087,0.1127,0.1109,0.1134,0.1172,0.1206,0.1226,0.1304,0.1329,0.1354,0.136,0.1362,0.1353,0.1366,0.1382,0.1385,0.1387,0.1354,0.1354,0.1356,0.1356,0.1356,0.1356,0,0.1132,0.1091,0.1085,0.1063,0.106,0.104,0.106,0.1101,0.1152,0.1181,0.125,0.1291,0.1335,0.135,0.1354,0.1391,0.1371,0.1387,0.1385,0.1391,0.1354,0.1354,0.1356,0.1356,0.1356,0.1356,0,0,0.1155,0.1082,0.1076,0.1036,0.1024,0.1011,0.1039,0.1068,0.1103,0.1166,0.1213,0.1267,0.1327,0.1336,0.1372,0.1395,0.1401,0.1398,0.1399,0.137,0.14,0.1244,0.1228,0.1422,0.1423,0.1424,0.1354,0,0.1137,0.1065,0.105,0.098,0.0933,0.0958,0.0976,0.1012,0.107,0.1134,0.121,0.1262,0.1305,0.1336,0.137,0.1407,0.1406,0.1416,0.1396,0.1395,0.126,0.1226,0.1166,0.1087,0.1354,0.1354,0.1354,0,0.1111,0.1058,0.0995,0.0903,0.0901,0.089,0.0928,0.0943,0.1038,0.1089,0.1172,0.1234,0.1303,0.133,0.1386,0.139,0.1391,0.141,0.1407,0.1266,0.1239,0.1131,0.1077,0.1353,0.1353,0.1353,0.1353,0,0.1122,0.0995,0.0947,0.091,0.086,0.0872,0.0874,0.0947,0.0984,0.1074,0.1117,0.1206,0.1257,0.1296,0.1345,0.1363,0.1383,0.1404,0.1256,0.1243,0.1189,0.1169,0.1418,0.1418,0.1418,0.1419,0.1419,0,0.1099,0.105,0.0932,0.0929,0.0883,0.0841,0.0867,0.0913,0.0963,0.1021,0.11,0.1158,0.1257,0.1292,0.1321,0.1272,0.1355,0.1239,0.1216,0.118,0.1161,0.1405,0.1404,0.1416,0.1416,0.1417,0.1417,0,0.1161,0.1083,0.1026,0.0947,0.0906,0.0901,0.0867,0.0902,0.0926,0.1001,0.1029,0.1122,0.1149,0.12,0.1249,0.1214,0.1199,0.1157,0.1076,0.1043,0.1048,0.1048,0.0964,0.0958,0.0953,0.0949,0.0945,0,0.1217,0.1166,0.1077,0.1058,0.1041,0.0977,0.0975,0.0939,0.0956,0.0989,0.1035,0.1058,0.1034,0.0994,0.0988,0.0927,0.1061,0.0828,0.0843,0.1015,0.1003,0.1011,0.1018,0.0772,0.0767,0.0763,0.076,0,0.1292,0.1263,0.1224,0.1175,0.1151,0.1098,0.1049,0.1024,0.1001,0.103,0.1045,0.0985,0.0886,0.0782,0.0655,0.0639,0.0827,0.0737,0.0972,0.0872,0.0822,0.0813,0.0829,0.0726,0.0729,0.0732,0.0733,0.0735,0.1359,0.1349,0.1278,0.1235,0.1215,0.1184,0.1134,0.1073,0.1045,0.0987,0.0998,0.0867,0.0674,0.0433,0.0407,0.0464,0.0498,0.0514,0.0533,0.0554,0.0521,0.0461,0.029,0.029,0.0291,0.0292,0.0293,0,0.1316,0.1322,0.1317,0.1237,0.1214,0.1228,0.1152,0.1063,0.0991,0.0948,0.088,0.0605,0.0391,0.0309,0.0301,0.0207,0.0284,0.0239,0.0381,0.041,0.0437,0.0407,0.0142,0.0142,0.0142,0.0142,0,0,0.1298,0.1242,0.1225,0.1171,0.1181,0.1117,0.1088,0.0985,0.0889,0.0748,0.0658,0.0459,0.0286,0.023,0.0158,0.0204,0.034,0.0195,0.0307,0.0508,0.0537,0.0563,0.0542,0,0,0,0,0]},{"header":{"parameterUnit":"m.s-1","parameterCategory":2,"la1":30.2991,"la2":30.254,"lo1":-89.0895,"lo2":-89.0444,"dy":0.0017,"dx":0.0017,"nx":28,"ny":28,"refTime":"2024-08-12T03:00:00:Z","depth":"2","parameterNumber":3,"parameterNumberName":"V-component_of_CURRENTS"},"data":[0,0,0,0,0,0,0,0,0,0,0,0,0,0,0,0,0,0,0,0,0,0,0,0,0,0,0,0,0,0,0,0,0,0,0,0,0,0,0,0,0,0,0,0,0,0,0,0,0,0,0,0,0,0,0,0,0,0,0.0018,0.0019,0,0.0102,0.0103,0.0104,0.0141,0.0141,0.0141,0.0141,0.0084,0.0083,0.0081,0,0,0,0,0,0,0,0,0,0,0,0,0,-0.0138,-0.0135,0.0018,0.0019,0.002,0.0102,0.0103,0.0104,0.0141,0.0141,0.0141,0.0142,0.0085,0.0083,0.0081,0,0,0,0,0,0,0,0,0,0,0,0,0,-0.0066,-0.0134,0.0017,0.005,0.0054,0.0102,0.0103,0.0104,0.0141,0.0141,0.0141,0.0142,0.0085,0.0083,0.0081,0.0062,0,0,0.0073,0.0072,0,0,0,0,0,0,0,0,-0.007,-0.006,0.0044,0.0048,0.0053,0.0114,0.0028,0.0084,0.0141,0.0106,0.0141,0.0142,0.0082,0.008,0.0094,0.006,0.0057,0.0073,0.0071,0.007,0.007,0,0,0,0,0,0,0,-0.0075,-0.0064,0.0049,0.0046,0.0051,0.0052,0.0063,0.0039,0.0087,0.0109,0.0112,0.0125,0.0083,0.0097,0.0093,0.0056,0.0073,0.0071,0.0069,0.0068,-0.0012,-0.0013,0,0,0,0,0,0,-0.0079,-0.0068,0.0046,0.0051,-0.0007,0.0055,0.0067,0.0092,0.0091,0.0093,0.0125,0.0127,0.0101,0.0096,0.0091,0.0084,0.007,0.0068,0.0067,-0.0011,-0.0012,-0.0013,0,0,0,0,0,0,-0.0082,-0.0069,0.0043,-0.0006,0.0009,0.0058,0.0086,0.0093,0.013,0.0106,0.0104,0.0156,0.0101,0.0094,0.0074,0.0081,0.0067,0.0065,-0.0011,-0.0012,-0.0013,0.0059,0,0,0,0,0,0,-0.0087,-0.007,-0.005,-0.0005,0.0012,0.0084,0.0086,0.0095,0.0137,0.0141,0.0131,0.0125,0.01,0.0078,0.0072,0.0077,0.0063,-0.001,-0.0011,-0.0012,0.0057,0.0061,0.0063,0,0,0,0,0,-0.0093,-0.0056,-0.0049,-0.0035,0.0038,0.0085,0.0094,0.0126,0.0139,0.0159,0.0141,0.0126,0.0065,0.0076,0.0069,0.0073,-0.0009,-0.0011,-0.0012,0.0056,0.006,0.0063,0,0,0,0,0,0,-0.0108,-0.0047,-0.0039,0.0015,0.0049,0.0092,0.0128,0.0141,0.0149,0.0149,0.0124,0.0117,0.01,0.0071,0.0084,0.0042,0.0023,0.002,0.0077,0.008,0.0083,0.0108,0.0061,0,0,0,0,0,-0.0104,-0.0062,-0.0017,0.0026,0.0053,0.0091,0.0118,0.0132,0.0145,0.0153,0.0155,0.0127,0.0085,0.0073,0.0042,0.0026,0.0017,0.0018,0.0021,0.0024,0.0036,0.0023,0.0028,-0.0018,-0.0018,-0.0018,0,0,-0.0104,-0.006,-0.004,0.0024,0.0063,0.0094,0.0109,0.0156,0.0166,0.0139,0.017,0.0144,0.0082,0.0062,0.0051,0.0042,0.0033,0.0022,0.0025,0.0036,0.0023,0.0027,0.0032,-0.0019,-0.0019,-0.0019,0,0,-0.0066,-0.0031,0.002,0.0041,0.0097,0.0114,0.0132,0.0186,0.0202,0.0205,0.0183,0.0171,0.0128,0.01,0.0066,0.0065,0.0049,0.0045,0.0084,0.0072,0.0077,0.0081,0.009,0.0094,0.0047,0.0047,0.0047,0,-0.0073,-0.0005,0.0039,0.0082,0.0098,0.0126,0.0158,0.0173,0.0208,0.0221,0.0215,0.018,0.0142,0.0106,0.0102,0.0076,0.0071,0.0082,0.008,0.0083,0.0086,0.0094,0.0098,0.005,0.005,0.005,0.0049,0,0.0004,0.0035,0.007,0.0125,0.0148,0.0177,0.0196,0.0229,0.0243,0.0252,0.0252,0.0214,0.0196,0.0173,0.0132,0.0129,0.0121,0.009,0.0083,0.0096,0.0103,0.0106,0.0055,0.0054,0.0053,0.0052,0,0,0.001,0.0105,0.0109,0.0123,0.0161,0.0186,0.0212,0.0244,0.0271,0.0282,0.0312,0.0251,0.0263,0.0226,0.0192,0.0181,0.0199,0.0149,0.0147,0.018,0.0191,0.0277,0.0287,0.0169,0.017,0.017,0.0194,0,0.0043,0.0129,0.0163,0.0192,0.0218,0.0232,0.0255,0.0275,0.0293,0.0332,0.0301,0.0303,0.0267,0.0265,0.0251,0.0208,0.0206,0.0196,0.0154,0.0154,0.0246,0.0294,0.0196,0.0217,0.0197,0.0197,0.0198,0,0.0074,0.0129,0.019,0.0217,0.0236,0.0251,0.0293,0.0315,0.0353,0.0371,0.0383,0.0373,0.0364,0.0326,0.029,0.0286,0.0251,0.0219,0.0218,0.0278,0.0245,0.0194,0.0222,0.0202,0.0201,0.0201,0.0201,0,0.0053,0.0111,0.0165,0.0171,0.0234,0.0257,0.0284,0.0328,0.0359,0.0402,0.0434,0.0426,0.0425,0.0383,0.0338,0.031,0.0306,0.0253,0.0301,0.0306,0.0206,0.0203,0.0234,0.0234,0.0234,0.0233,0.0233,0,0.0047,0.0066,0.0153,0.0186,0.0215,0.025,0.0298,0.0334,0.039,0.0438,0.0453,0.049,0.0437,0.0433,0.0375,0.0376,0.0337,0.0335,0.0327,0.023,0.023,0.0191,0.0186,0.0234,0.0234,0.0234,0.0234,0,0.0,0.0067,0.0113,0.02,0.0212,0.023,0.0296,0.0344,0.0397,0.0462,0.0479,0.0532,0.0543,0.0506,0.045,0.0439,0.0412,0.0412,0.0329,0.0313,0.0407,0.0404,0.0475,0.0478,0.0481,0.0484,0.0486,0,-0.0005,0.0027,0.0124,0.0148,0.0185,0.0219,0.0264,0.0333,0.0384,0.0492,0.0526,0.0575,0.0618,0.0617,0.0557,0.0515,0.0486,0.0455,0.0395,0.0452,0.0436,0.0428,0.0422,0.0274,0.0274,0.0274,0.0274,0,-0.0034,0.0012,0.0066,0.0135,0.0178,0.0231,0.0291,0.0332,0.0433,0.0509,0.0609,0.0656,0.066,0.0598,0.0584,0.0542,0.0462,0.0464,0.0519,0.0261,0.0274,0.0255,0.0252,0.0275,0.0275,0.0275,0.0275,0.0275,-0.0067,-0.0043,0.0047,0.0106,0.015,0.0233,0.0283,0.0364,0.046,0.0556,0.0618,0.0666,0.0568,0.0521,0.0506,0.0509,0.0505,0.0456,0.0449,0.0443,0.0449,0.047,0.0509,0.051,0.0511,0.0512,0.0513,0,-0.0119,-0.0053,0.0013,0.0092,0.014,0.0193,0.0298,0.035,0.0458,0.0541,0.0611,0.0521,0.048,0.0436,0.0413,0.0431,0.0371,0.0452,0.0313,0.0311,0.0309,0.0303,0.0327,0.0327,0.0328,0.0328,0,0,-0.014,-0.0078,-0.0007,0.007,0.0122,0.0196,0.0266,0.0343,0.0405,0.0486,0.0511,0.0468,0.0428,0.0351,0.0318,0.034,0.0348,0.0356,0.0489,0.0322,0.0322,0.028,0.0267,0,0,0,0,0]}],[{"header":{"parameterUnit":"m.s-1","parameterCategory":2,"la1":30.2991,"la2":30.254,"lo1":-89.0895,"lo2":-89.0444,"dy":0.0017,"dx":0.0017,"nx":28,"ny":28,"refTime":"2024-08-12T03:00:00:Z","depth":"4","parameterNumber":2,"parameterNumberName":"U-component_of_CURRENTS"},"data":[0,0,0,0,0,0,0,0,0,0,0,0,0,0,0,0,0,0,0,0,0,0,0,0,0,0,0,0,0,0,0,0,0,0,0,0,0,0,0,0,0,0,0,0,0,0,0,0,0,0,0,0,0,0,0,0,0,0,-0.0766,-0.0767,0,-0.0896,-0.0898,-0.09,-0.0899,-0.0897,-0.0895,-0.0893,-0.1011,-0.1016,-0.1021,0,0,0,0,0,0,0,0,0,0,0,0,0,-0.0648,-0.065,-0.0766,-0.0767,-0.0768,-0.0896,-0.0898,-0.09,-0.0899,-0.0897,-0.0894,-0.0892,-0.1009,-0.1015,-0.1021,0,0,0,0,0,0,0,0,0,0,0,0,0,-0.0734,-0.065,-0.0765,-0.0781,-0.0783,-0.0895,-0.0898,-0.0901,-0.09,-0.0896,-0.0893,-0.0891,-0.1007,-0.1015,-0.1022,-0.113,0,0,-0.1045,-0.1049,0,0,0,0,0,0,0,0,-0.0729,-0.0738,-0.0777,-0.078,-0.0783,-0.0875,-0.09,-0.0976,-0.09,-0.0859,-0.0893,-0.0889,-0.0964,-0.0975,-0.1012,-0.1136,-0.1141,-0.1046,-0.1051,-0.1054,-0.1056,0,0,0,0,0,0,0,-0.0723,-0.0734,-0.0821,-0.0779,-0.0782,-0.0826,-0.0834,-0.0915,-0.093,-0.0862,-0.0862,-0.0872,-0.0966,-0.1005,-0.1014,-0.1142,-0.1046,-0.1052,-0.1057,-0.106,-0.13,-0.1302,0,0,0,0,0,0,-0.0697,-0.0728,-0.0817,-0.0824,-0.0744,-0.083,-0.0839,-0.0851,-0.0929,-0.0937,-0.0874,-0.0871,-0.0993,-0.1006,-0.1018,-0.1128,-0.1054,-0.1061,-0.1065,-0.1298,-0.1301,-0.1303,0,0,0,0,0,0,-0.0694,-0.0703,-0.0811,-0.0776,-0.0792,-0.0833,-0.0849,-0.0855,-0.0863,-0.0938,-0.0945,-0.0869,-0.0991,-0.1008,-0.1085,-0.1133,-0.1064,-0.1071,-0.1296,-0.1299,-0.1302,-0.1361,0,0,0,0,0,0,-0.069,-0.0702,-0.0733,-0.0774,-0.0793,-0.0868,-0.0851,-0.086,-0.0874,-0.087,-0.0938,-0.0947,-0.099,-0.1073,-0.1092,-0.1142,-0.1077,-0.1294,-0.1297,-0.1301,-0.1357,-0.1366,-0.1373,0,0,0,0,0,-0.0685,-0.0732,-0.0734,-0.0746,-0.0824,-0.0869,-0.0884,-0.0905,-0.0876,-0.0897,-0.094,-0.0943,-0.1107,-0.1082,-0.1103,-0.1156,-0.1292,-0.1296,-0.13,-0.1353,-0.1364,-0.1373,0,0,0,0,0,0,-0.0722,-0.0737,-0.074,-0.0796,-0.0823,-0.0866,-0.0894,-0.0895,-0.0948,-0.093,-0.0984,-0.1,-0.108,-0.111,-0.108,-0.1231,-0.1195,-0.1203,-0.1228,-0.1238,-0.1246,-0.1208,-0.1083,0,0,0,0,0,-0.0739,-0.0755,-0.0785,-0.0827,-0.083,-0.0855,-0.0882,-0.0881,-0.092,-0.0936,-0.0982,-0.1039,-0.1126,-0.1167,-0.1233,-0.1332,-0.1313,-0.1373,-0.1381,-0.1387,-0.1369,-0.1396,-0.1404,-0.1316,-0.1316,-0.1316,0,0,-0.0768,-0.0775,-0.0792,-0.0833,-0.0846,-0.0888,-0.0862,-0.0877,-0.0928,-0.0946,-0.1023,-0.1066,-0.1154,-0.1259,-0.1298,-0.1286,-0.1402,-0.1393,-0.1398,-0.1376,-0.1401,-0.1409,-0.1417,-0.1319,-0.1318,-0.1318,0,0,-0.0794,-0.0825,-0.0828,-0.0854,-0.0862,-0.0899,-0.089,-0.0915,-0.0938,-0.1013,-0.1048,-0.1114,-0.1225,-0.1315,-0.1375,-0.1468,-0.1436,-0.1477,-0.1507,-0.1534,-0.1541,-0.1547,-0.1525,-0.1528,-0.1492,-0.1492,-0.1492,0,-0.0826,-0.084,-0.0845,-0.0856,-0.0892,-0.0895,-0.0924,-0.0978,-0.1031,-0.1074,-0.1029,-0.1205,-0.1261,-0.1435,-0.1452,-0.1489,-0.1463,-0.1468,-0.1543,-0.1548,-0.1553,-0.1529,-0.1532,-0.1495,-0.1495,-0.1495,-0.1494,0,-0.0846,-0.087,-0.0872,-0.0895,-0.0948,-0.0966,-0.1027,-0.1069,-0.1079,-0.1134,-0.1242,-0.1314,-0.1403,-0.1452,-0.1479,-0.1576,-0.1531,-0.1541,-0.1513,-0.1565,-0.1537,-0.1539,-0.15,-0.1499,-0.1498,-0.1497,0,0,-0.0863,-0.088,-0.0879,-0.0903,-0.0961,-0.1007,-0.1096,-0.1195,-0.126,-0.1302,-0.1391,-0.1518,-0.1499,-0.156,-0.1609,-0.1641,-0.1651,-0.1587,-0.1587,-0.1554,-0.1656,-0.1479,-0.1464,-0.166,-0.1661,-0.1662,-0.1619,0,-0.0864,-0.0884,-0.0915,-0.0991,-0.1013,-0.108,-0.1182,-0.128,-0.1343,-0.1437,-0.1509,-0.1589,-0.1568,-0.1581,-0.1619,-0.165,-0.1657,-0.1658,-0.1618,-0.1616,-0.1445,-0.1462,-0.1665,-0.162,-0.162,-0.162,-0.162,0,-0.0863,-0.0878,-0.0909,-0.1025,-0.1045,-0.1095,-0.1247,-0.1338,-0.1484,-0.1524,-0.1597,-0.1634,-0.1711,-0.1651,-0.1698,-0.1685,-0.1647,-0.1655,-0.1654,-0.1462,-0.1442,-0.156,-0.1623,-0.1623,-0.1623,-0.1623,-0.1622,0,-0.084,-0.09,-0.0922,-0.0953,-0.1069,-0.1097,-0.1173,-0.1323,-0.1437,-0.1529,-0.1588,-0.168,-0.1694,-0.1691,-0.1672,-0.1664,-0.1695,-0.1702,-0.1517,-0.1504,-0.165,-0.1645,-0.1699,-0.1699,-0.1699,-0.1699,-0.17,0,-0.0826,-0.0871,-0.0883,-0.0896,-0.0978,-0.1048,-0.1168,-0.1253,-0.1397,-0.1477,-0.158,-0.1589,-0.1688,-0.1722,-0.169,-0.1588,-0.1697,-0.1495,-0.1479,-0.1676,-0.1674,-0.165,-0.1645,-0.1698,-0.1698,-0.1698,-0.1699,0,-0.0801,-0.0806,-0.0857,-0.0919,-0.0946,-0.0987,-0.116,-0.1254,-0.1354,-0.144,-0.1448,-0.1549,-0.1467,-0.1595,-0.1587,-0.1577,-0.1532,-0.1472,-0.1651,-0.1651,-0.1312,-0.1311,-0.1235,-0.1228,-0.1223,-0.1218,-0.1214,0,-0.0785,-0.0774,-0.0848,-0.0878,-0.0882,-0.0965,-0.1037,-0.1189,-0.1217,-0.1328,-0.1294,-0.1323,-0.1334,-0.1254,-0.1326,-0.1318,-0.1303,-0.1341,-0.1328,-0.1271,-0.1265,-0.1272,-0.1279,-0.1205,-0.1204,-0.1202,-0.1201,0,-0.0772,-0.0778,-0.0832,-0.0833,-0.0868,-0.0952,-0.0967,-0.1023,-0.1103,-0.1255,-0.1109,-0.1115,-0.1047,-0.1036,-0.1095,-0.1069,-0.1364,-0.1281,-0.1292,-0.128,-0.1234,-0.1235,-0.1248,-0.1181,-0.1184,-0.1186,-0.1187,0,-0.0784,-0.0788,-0.0793,-0.0799,-0.0868,-0.0812,-0.09,-0.0845,-0.0913,-0.0981,-0.0867,-0.0886,-0.0923,-0.0891,-0.089,-0.0917,-0.0877,-0.093,-0.0959,-0.0982,-0.0926,-0.0832,-0.0619,0,0,0,0,0,-0.0757,-0.072,-0.0752,-0.0726,-0.0791,-0.0766,-0.0796,-0.0852,-0.0911,-0.0774,-0.0831,-0.0712,-0.069,-0.0684,-0.065,-0.0761,-0.0907,-0.0726,-0.099,-0.1073,-0.1096,-0.1059,0,0,0,0,0,0,-0.0732,-0.0759,-0.0714,-0.0634,-0.0607,-0.0601,-0.0617,-0.0658,-0.0549,-0.063,-0.0588,-0.067,-0.0629,-0.0673,-0.0624,-0.0638,-0.0796,-0.075,-0.0749,-0.1061,-0.1081,-0.1099,-0.1069,0,0,0,0,0]},{"header":{"parameterUnit":"m.s-1","parameterCategory":2,"la1":30.2991,"la2":30.254,"lo1":-89.0895,"lo2":-89.0444,"dy":0.0017,"dx":0.0017,"nx":28,"ny":28,"refTime":"2024-08-12T03:00:00:Z","depth":"4","parameterNumber":3,"parameterNumberName":"V-component_of_CURRENTS"},"data":[0,0,0,0,0,0,0,0,0,0,0,0,0,0,0,0,0,0,0,0,0,0,0,0,0,0,0,0,0,0,0,0,0,0,0,0,0,0,0,0,0,0,0,0,0,0,0,0,0,0,0,0,0,0,0,0,0,0,0.007,0.0069,0,0.0054,0.0054,0.0054,0.0043,0.0043,0.0043,0.0043,0.0102,0.0104,0.0106,0,0,0,0,0,0,0,0,0,0,0,0,0,0.0101,0.01,0.007,0.0069,0.0069,0.0054,0.0054,0.0054,0.0043,0.0043,0.0043,0.0043,0.0102,0.0104,0.0106,0,0,0,0,0,0,0,0,0,0,0,0,0,0.0087,0.01,0.007,0.0061,0.006,0.0054,0.0054,0.0054,0.0043,0.0043,0.0043,0.0042,0.0101,0.0104,0.0106,0.0128,0,0,0.0114,0.0116,0,0,0,0,0,0,0,0,0.0088,0.0086,0.0063,0.0062,0.0061,0.005,0.0087,0.0082,0.0043,0.005,0.0043,0.0042,0.0092,0.0095,0.0093,0.013,0.0133,0.0115,0.0116,0.0117,0.0118,0,0,0,0,0,0,0,0.0089,0.0087,0.0064,0.0062,0.0061,0.0062,0.006,0.0086,0.0075,0.005,0.0049,0.0046,0.0092,0.009,0.0094,0.0134,0.0115,0.0117,0.0118,0.012,0.0229,0.023,0,0,0,0,0,0,0.0089,0.0088,0.0065,0.0064,0.0073,0.0062,0.0059,0.0054,0.0073,0.0074,0.0046,0.0045,0.0086,0.0091,0.0096,0.0117,0.0117,0.012,0.0121,0.0227,0.0229,0.023,0,0,0,0,0,0,0.009,0.0087,0.0065,0.0075,0.0072,0.0061,0.0056,0.0054,0.0045,0.0069,0.0072,0.0038,0.0086,0.0093,0.012,0.0119,0.0121,0.0123,0.0226,0.0228,0.023,0.0162,0,0,0,0,0,0,0.0091,0.0087,0.0095,0.0075,0.0072,0.005,0.0056,0.0054,0.0044,0.0042,0.0063,0.0069,0.0086,0.0116,0.0123,0.0123,0.0125,0.0224,0.0227,0.0229,0.0162,0.0161,0.016,0,0,0,0,0,0.0092,0.0089,0.0096,0.0094,0.0079,0.005,0.0048,0.004,0.0043,0.0033,0.0058,0.0068,0.0138,0.0119,0.0127,0.0127,0.0223,0.0226,0.0229,0.0163,0.0161,0.016,0,0,0,0,0,0,0.011,0.0087,0.0094,0.0087,0.0069,0.0047,0.0042,0.0037,0.0046,0.005,0.0076,0.0083,0.0109,0.0138,0.0117,0.0173,0.0186,0.019,0.0133,0.0132,0.0131,0.0109,0.0128,0,0,0,0,0,0.0119,0.011,0.0088,0.0086,0.0074,0.006,0.0053,0.0041,0.0041,0.0043,0.006,0.0095,0.0129,0.0144,0.0175,0.02,0.0238,0.0213,0.0212,0.021,0.0202,0.0275,0.0279,0.024,0.024,0.024,0,0,0.0128,0.0115,0.0113,0.009,0.0077,0.0046,0.0054,0.003,0.0017,0.0053,0.0053,0.0087,0.0137,0.0162,0.0178,0.0183,0.0242,0.0214,0.0212,0.0204,0.0279,0.0282,0.0285,0.0242,0.0242,0.0241,0,0,0.0118,0.0125,0.0103,0.0079,0.0051,0.0041,0.0031,0.0006,0.001,0.0015,0.0046,0.0089,0.012,0.0163,0.0189,0.021,0.0234,0.0214,0.0184,0.0255,0.0258,0.0262,0.0305,0.0312,0.0213,0.0213,0.0213,0,0.0135,0.0097,0.0094,0.0053,0.0028,0.0033,-0.001,-0.0002,-0.001,0.0001,0.0009,0.0088,0.0129,0.0178,0.0176,0.0206,0.023,0.0175,0.025,0.0255,0.0259,0.0303,0.0312,0.021,0.021,0.021,0.0211,0,0.0087,0.0061,0.0041,-0.0004,-0.0027,-0.0062,-0.0069,-0.0069,-0.0056,-0.0044,0.0003,0.0068,0.0109,0.0139,0.0154,0.0205,0.0205,0.0236,0.0242,0.0258,0.0304,0.0314,0.0206,0.0207,0.0208,0.0208,0,0,0.0114,0.0026,0.0023,-0.0024,-0.0066,-0.0099,-0.0104,-0.0111,-0.0114,-0.0072,-0.0057,0.0023,0.0052,0.0086,0.0131,0.0194,0.0244,0.0205,0.021,0.0225,0.0366,0.0215,0.0212,0.027,0.0272,0.0273,0.0381,0,0.008,-0.0009,-0.0039,-0.0119,-0.0174,-0.018,-0.019,-0.0187,-0.0162,-0.0139,-0.0038,-0.0006,0.0035,0.0048,0.0117,0.021,0.0269,0.021,0.0368,0.0372,0.0218,0.0219,0.0279,0.0389,0.0391,0.0393,0.0394,0,0.0041,-0.0021,-0.0095,-0.02,-0.0222,-0.0238,-0.0264,-0.028,-0.0227,-0.0209,-0.0148,-0.0099,-0.0005,0.0034,0.0204,0.0151,0.024,0.0327,0.0334,0.022,0.024,0.0378,0.0414,0.0413,0.0411,0.041,0.0409,0,0.0045,-0.0067,-0.0123,-0.0158,-0.0249,-0.0254,-0.0283,-0.027,-0.029,-0.0238,-0.0242,-0.0133,-0.0071,0.0059,0.0193,0.0194,0.0381,0.0422,0.0383,0.0374,0.0509,0.0505,0.0551,0.0551,0.0551,0.055,0.055,0,0.0006,-0.005,-0.0112,-0.0148,-0.0218,-0.0262,-0.0305,-0.0315,-0.0309,-0.0328,-0.0269,-0.026,-0.0066,0.0041,0.0176,0.0281,0.0372,0.0363,0.0387,0.0479,0.047,0.0516,0.0511,0.0554,0.0553,0.0553,0.0552,0,0.0003,-0.0032,-0.0113,-0.0189,-0.0213,-0.025,-0.0341,-0.0383,-0.0366,-0.0382,-0.0376,-0.0325,-0.0238,-0.0065,0.0154,0.0239,0.0378,0.0403,0.0457,0.0486,0.0333,0.0324,0.0366,0.0361,0.0357,0.0354,0.0351,0,-0.0021,-0.0048,-0.0128,-0.018,-0.0207,-0.0277,-0.034,-0.0383,-0.0414,-0.0434,-0.043,-0.039,-0.0347,-0.0127,0.0017,0.0229,0.0264,0.0355,0.0361,0.0292,0.0313,0.0309,0.0305,0.0345,0.0344,0.0343,0.0342,0,-0.0082,-0.0066,-0.0137,-0.0201,-0.0261,-0.0374,-0.0431,-0.0449,-0.0489,-0.0501,-0.0469,-0.0413,-0.034,-0.0194,-0.0053,0.0111,0.0304,0.0316,0.0326,0.0332,0.0268,0.0292,0.0292,0.0329,0.0331,0.0332,0.0333,0,-0.0116,-0.0155,-0.019,-0.0239,-0.0337,-0.0399,-0.0452,-0.0483,-0.051,-0.0485,-0.049,-0.0424,-0.0371,-0.0261,-0.0127,-0.0015,0.0021,0.0126,0.0147,0.0163,0.0044,-0.0071,-0.0107,0,0,0,0,0,-0.0166,-0.0179,-0.0246,-0.0292,-0.0378,-0.0387,-0.0494,-0.0531,-0.0539,-0.0513,-0.0483,-0.0428,-0.0321,-0.0292,-0.0204,-0.0225,0.0024,-0.0123,0.0154,0.0254,0.027,0.0145,0,0,0,0,0,0,-0.0208,-0.0255,-0.0238,-0.0291,-0.0305,-0.039,-0.0433,-0.0458,-0.0426,-0.0429,-0.0372,-0.0366,-0.0266,-0.0326,-0.0172,-0.0158,0.0033,-0.0082,-0.008,0.0246,0.026,0.0272,0.015,0,0,0,0,0]}]]